Tracking 29892 objects as of 21-Nov-2024
HD Live streaming from Space Station
objects crossing your sky now

STARLINK-1962

Track STARLINK-1962 now!
10-day predictions
STARLINK-1962 is classified as:


NORAD ID: 47563
Int'l Code: 2021-009R
Perigee: 553.2 km
Apogee: 555.4 km
Inclination: 53.1 °
Period: 95.6 minutes
Semi major axis: 6925 km
RCS: Unknown
Launch date: February 4, 2021
Source: United States (US)
Launch site: AIR FORCE EASTERN TEST RANGE (AFETR)
Your satellite tracking list
Your tracking list is empty




NASA's NSSDC Master Catalog

Two Line Element Set (TLE):
1 47563U 21009R   24325.11676456  .00006604  00000-0  46166-3 0  9991
2 47563  53.0544 352.0599 0001583  95.6983 264.4186 15.06415385209266
Source of the keplerian elements: AFSPC